Tracking 28790 objects as of 19-Apr-2024
HD Live streaming from Space Station
objects crossing your sky now

DELTA 1 R/B

Track DELTA 1 R/B now!
10-day predictions


NORAD ID: 3767
Int'l Code: 1969-016B
Perigee: 1,426.0 km
Apogee: 1,504.9 km
Inclination: 101.4 °
Period: 115.1 minutes
Semi major axis: 7836 km
RCS: 0.5861 m2 (medium)
Launch date: February 26, 1969
Source: United States (US)
Launch site: AIR FORCE EASTERN TEST RANGE (AFETR)

Note: This is a ROCKET BODY
Your satellite tracking list
Your tracking list is empty




NASA's NSSDC Master Catalog

Two Line Element Set (TLE):
1 03767U 69016B   24109.68272966  .00000004  00000-0  30198-3 0  9995
2 03767 101.4373 146.1869 0050332  76.1181  47.6411 12.51482826518068
Source of the keplerian elements: AFSPC